owner,sensor,date,latitude,longitude,relative_humidity,qcFlag 
DISL,ioos:station:DISL:CATA:1,2017-10-01T00:00:00Z,30.3085,-88.1395,76.19,1111122 
DISL,ioos:station:DISL:CATA:1,2017-10-01T00:30:00Z,30.3085,-88.1395,69.99,1111122 
DISL,ioos:station:DISL:CATA:1,2017-10-01T01:00:00Z,30.3085,-88.1395,74.85,1111122 
DISL,ioos:station:DISL:CATA:1,2017-10-01T01:30:00Z,30.3085,-88.1395,78.45,1111122 
DISL,ioos:station:DISL:CATA:1,2017-10-01T02:00:00Z,30.3085,-88.1395,76.88,1111122 
DISL,ioos:station:DISL:CATA:1,2017-10-01T02:30:00Z,30.3085,-88.1395,72.05,1111122 
DISL,ioos:station:DISL:CATA:1,2017-10-01T03:00:00Z,30.3085,-88.1395,64.41,1111122 
DISL,ioos:station:DISL:CATA:1,2017-10-01T03:30:00Z,30.3085,-88.1395,77.26,1111122 
DISL,ioos:station:DISL:CATA:1,2017-10-01T04:00:00Z,30.3085,-88.1395,80.9,1111122 
DISL,ioos:station:DISL:CATA:1,2017-10-01T04:30:00Z,30.3085,-88.1395,89.7,1111122 
DISL,ioos:station:DISL:CATA:1,2017-10-01T05:00:00Z,30.3085,-88.1395,80.7,1111122 
DISL,ioos:station:DISL:CATA:1,2017-10-01T05:30:00Z,30.3085,-88.1395,84.4,1111122 
DISL,ioos:station:DISL:CATA:1,2017-10-01T06:30:00Z,30.3085,-88.1395,81.9,1111122 
DISL,ioos:station:DISL:CATA:1,2017-10-01T07:00:00Z,30.3085,-88.1395,81.5,1111122 
DISL,ioos:station:DISL:CATA:1,2017-10-01T07:30:00Z,30.3085,-88.1395,81.4,1111122 
DISL,ioos:station:DISL:CATA:1,2017-10-01T08:00:00Z,30.3085,-88.1395,81.1,1111122 
DISL,ioos:station:DISL:CATA:1,2017-10-01T08:30:00Z,30.3085,-88.1395,79.9,1111122 
DISL,ioos:station:DISL:CATA:1,2017-10-01T09:00:00Z,30.3085,-88.1395,81.2,1111122 
DISL,ioos:station:DISL:CATA:1,2017-10-01T09:30:00Z,30.3085,-88.1395,90.0,1111122 
DISL,ioos:station:DISL:CATA:1,2017-10-01T10:00:00Z,30.3085,-88.1395,89.9,1111122 
DISL,ioos:station:DISL:CATA:1,2017-10-01T10:30:00Z,30.3085,-88.1395,88.1,1111122 
DISL,ioos:station:DISL:CATA:1,2017-10-01T11:00:00Z,30.3085,-88.1395,80.6,1111122 
DISL,ioos:station:DISL:CATA:1,2017-10-01T11:30:00Z,30.3085,-88.1395,79.64,1111122 
DISL,ioos:station:DISL:CATA:1,2017-10-01T12:00:00Z,30.3085,-88.1395,78.38,1111122 
DISL,ioos:station:DISL:CATA:1,2017-10-01T12:30:00Z,30.3085,-88.1395,75.12,1111122 
DISL,ioos:station:DISL:CATA:1,2017-10-01T13:00:00Z,30.3085,-88.1395,73.92,1111122 
DISL,ioos:station:DISL:CATA:1,2017-10-01T13:30:00Z,30.3085,-88.1395,73.41,1111122 
DISL,ioos:station:DISL:CATA:1,2017-10-01T14:00:00Z,30.3085,-88.1395,74.43,1111122 
DISL,ioos:station:DISL:CATA:1,2017-10-01T14:30:00Z,30.3085,-88.1395,70.83,1111122 
DISL,ioos:station:DISL:CATA:1,2017-10-01T15:00:00Z,30.3085,-88.1395,72.16,1111122 
DISL,ioos:station:DISL:CATA:1,2017-10-01T15:30:00Z,30.3085,-88.1395,69.21,1111122 
DISL,ioos:station:DISL:CATA:1,2017-10-01T16:00:00Z,30.3085,-88.1395,69.44,1111122 
DISL,ioos:station:DISL:CATA:1,2017-10-01T16:30:00Z,30.3085,-88.1395,66.46,1111122 
DISL,ioos:station:DISL:CATA:1,2017-10-01T17:00:00Z,30.3085,-88.1395,67.73,1111122 
DISL,ioos:station:DISL:CATA:1,2017-10-01T17:30:00Z,30.3085,-88.1395,67.97,1111122 
DISL,ioos:station:DISL:CATA:1,2017-10-01T18:00:00Z,30.3085,-88.1395,65.47,1111122 
DISL,ioos:station:DISL:CATA:1,2017-10-01T18:30:00Z,30.3085,-88.1395,63.69,1111122 
DISL,ioos:station:DISL:CATA:1,2017-10-01T19:00:00Z,30.3085,-88.1395,62.59,1111122 
DISL,ioos:station:DISL:CATA:1,2017-10-01T19:30:00Z,30.3085,-88.1395,63.17,1111122 
DISL,ioos:station:DISL:CATA:1,2017-10-01T20:00:00Z,30.3085,-88.1395,66.22,1111122 
DISL,ioos:station:DISL:CATA:1,2017-10-01T20:30:00Z,30.3085,-88.1395,66.32,1111122 
DISL,ioos:station:DISL:CATA:1,2017-10-01T21:00:00Z,30.3085,-88.1395,72.09,1111122 
DISL,ioos:station:DISL:CATA:1,2017-10-01T21:30:00Z,30.3085,-88.1395,69.62,1111122 
DISL,ioos:station:DISL:CATA:1,2017-10-01T22:00:00Z,30.3085,-88.1395,71.75,1111122 
DISL,ioos:station:DISL:CATA:1,2017-10-01T22:30:00Z,30.3085,-88.1395,74.43,1111122 
DISL,ioos:station:DISL:CATA:1,2017-10-01T23:00:00Z,30.3085,-88.1395,75.12,1111122 
DISL,ioos:station:DISL:CATA:1,2017-10-01T23:30:00Z,30.3085,-88.1395,74.78,1111122 
DISL,ioos:station:DISL:CATA:1,2017-10-02T00:00:00Z,30.3085,-88.1395,74.95,1111122 
DISL,ioos:station:DISL:CATA:1,2017-10-02T00:30:00Z,30.3085,-88.1395,83.0,1111122 
DISL,ioos:station:DISL:CATA:1,2017-10-02T01:00:00Z,30.3085,-88.1395,85.8,1111122 
DISL,ioos:station:DISL:CATA:1,2017-10-02T01:30:00Z,30.3085,-88.1395,86.0,1111122 
DISL,ioos:station:DISL:CATA:1,2017-10-02T02:00:00Z,30.3085,-88.1395,87.1,1111122 
DISL,ioos:station:DISL:CATA:1,2017-10-02T02:30:00Z,30.3085,-88.1395,85.2,1111122 
DISL,ioos:station:DISL:CATA:1,2017-10-02T03:00:00Z,30.3085,-88.1395,83.6,1111122 
DISL,ioos:station:DISL:CATA:1,2017-10-02T03:30:00Z,30.3085,-88.1395,81.7,1111122 
DISL,ioos:station:DISL:CATA:1,2017-10-02T04:00:00Z,30.3085,-88.1395,82.1,1111122 
DISL,ioos:station:DISL:CATA:1,2017-10-02T04:30:00Z,30.3085,-88.1395,82.8,1111122 
DISL,ioos:station:DISL:CATA:1,2017-10-02T05:00:00Z,30.3085,-88.1395,82.9,1111122 
DISL,ioos:station:DISL:CATA:1,2017-10-02T05:30:00Z,30.3085,-88.1395,81.9,1111122 
DISL,ioos:station:DISL:CATA:1,2017-10-02T06:30:00Z,30.3085,-88.1395,81.7,1111122 
DISL,ioos:station:DISL:CATA:1,2017-10-02T07:00:00Z,30.3085,-88.1395,82.6,1111122 
DISL,ioos:station:DISL:CATA:1,2017-10-02T07:30:00Z,30.3085,-88.1395,82.0,1111122 
DISL,ioos:station:DISL:CATA:1,2017-10-02T08:00:00Z,30.3085,-88.1395,83.7,1111122 
DISL,ioos:station:DISL:CATA:1,2017-10-02T08:30:00Z,30.3085,-88.1395,83.1,1111122 
DISL,ioos:station:DISL:CATA:1,2017-10-02T09:00:00Z,30.3085,-88.1395,84.3,1111122 
DISL,ioos:station:DISL:CATA:1,2017-10-02T09:30:00Z,30.3085,-88.1395,84.6,1111122 
DISL,ioos:station:DISL:CATA:1,2017-10-02T10:00:00Z,30.3085,-88.1395,85.6,1111122 
DISL,ioos:station:DISL:CATA:1,2017-10-02T10:30:00Z,30.3085,-88.1395,87.8,1111122 
DISL,ioos:station:DISL:CATA:1,2017-10-02T11:00:00Z,30.3085,-88.1395,87.6,1111122 
DISL,ioos:station:DISL:CATA:1,2017-10-02T11:30:00Z,30.3085,-88.1395,86.8,1111122 
DISL,ioos:station:DISL:CATA:1,2017-10-02T12:00:00Z,30.3085,-88.1395,86.1,1111122 
DISL,ioos:station:DISL:CATA:1,2017-10-02T12:30:00Z,30.3085,-88.1395,86.5,1111122 
DISL,ioos:station:DISL:CATA:1,2017-10-02T13:00:00Z,30.3085,-88.1395,87.1,1111122 
DISL,ioos:station:DISL:CATA:1,2017-10-02T13:30:00Z,30.3085,-88.1395,85.6,1111122 
DISL,ioos:station:DISL:CATA:1,2017-10-02T14:00:00Z,30.3085,-88.1395,85.3,1111122 
DISL,ioos:station:DISL:CATA:1,2017-10-02T14:30:00Z,30.3085,-88.1395,84.1,1111122 
DISL,ioos:station:DISL:CATA:1,2017-10-02T15:00:00Z,30.3085,-88.1395,84.6,1111122 
DISL,ioos:station:DISL:CATA:1,2017-10-02T15:30:00Z,30.3085,-88.1395,83.9,1111122 
DISL,ioos:station:DISL:CATA:1,2017-10-02T16:00:00Z,30.3085,-88.1395,83.7,1111122 
DISL,ioos:station:DISL:CATA:1,2017-10-02T16:30:00Z,30.3085,-88.1395,82.7,1111122 
DISL,ioos:station:DISL:CATA:1,2017-10-02T17:00:00Z,30.3085,-88.1395,81.9,1111122 
DISL,ioos:station:DISL:CATA:1,2017-10-02T17:30:00Z,30.3085,-88.1395,81.2,1111122 
DISL,ioos:station:DISL:CATA:1,2017-10-02T18:00:00Z,30.3085,-88.1395,80.2,1111122 
DISL,ioos:station:DISL:CATA:1,2017-10-02T18:30:00Z,30.3085,-88.1395,80.6,1111122 
DISL,ioos:station:DISL:CATA:1,2017-10-02T19:00:00Z,30.3085,-88.1395,80.1,1111122 
DISL,ioos:station:DISL:CATA:1,2017-10-02T19:30:00Z,30.3085,-88.1395,80.3,1111122 
DISL,ioos:station:DISL:CATA:1,2017-10-02T20:00:00Z,30.3085,-88.1395,80.9,1111122 
DISL,ioos:station:DISL:CATA:1,2017-10-02T20:30:00Z,30.3085,-88.1395,80.5,1111122 
DISL,ioos:station:DISL:CATA:1,2017-10-02T21:00:00Z,30.3085,-88.1395,82.4,1111122 
DISL,ioos:station:DISL:CATA:1,2017-10-02T21:30:00Z,30.3085,-88.1395,83.3,1111122 
DISL,ioos:station:DISL:CATA:1,2017-10-02T22:00:00Z,30.3085,-88.1395,82.1,1111122 
DISL,ioos:station:DISL:CATA:1,2017-10-02T22:30:00Z,30.3085,-88.1395,80.9,1111122 
DISL,ioos:station:DISL:CATA:1,2017-10-02T23:00:00Z,30.3085,-88.1395,81.5,1111122 
DISL,ioos:station:DISL:CATA:1,2017-10-02T23:30:00Z,30.3085,-88.1395,76.79,1111122 
DISL,ioos:station:DISL:CATA:1,2017-10-03T00:00:00Z,30.3085,-88.1395,74.53,1111122 
DISL,ioos:station:DISL:CATA:1,2017-10-03T00:30:00Z,30.3085,-88.1395,72.64,1111122 
DISL,ioos:station:DISL:CATA:1,2017-10-03T01:00:00Z,30.3085,-88.1395,73.19,1111122 
DISL,ioos:station:DISL:CATA:1,2017-10-03T01:30:00Z,30.3085,-88.1395,74.39,1111122 
DISL,ioos:station:DISL:CATA:1,2017-10-03T02:00:00Z,30.3085,-88.1395,72.57,1111122 
DISL,ioos:station:DISL:CATA:1,2017-10-03T02:30:00Z,30.3085,-88.1395,73.09,1111122 
DISL,ioos:station:DISL:CATA:1,2017-10-03T03:00:00Z,30.3085,-88.1395,74.29,1111122 
DISL,ioos:station:DISL:CATA:1,2017-10-03T03:30:00Z,30.3085,-88.1395,75.7,1111122 
DISL,ioos:station:DISL:CATA:1,2017-10-03T04:00:00Z,30.3085,-88.1395,74.64,1111122 
DISL,ioos:station:DISL:CATA:1,2017-10-03T04:30:00Z,30.3085,-88.1395,76.66,1111122 
DISL,ioos:station:DISL:CATA:1,2017-10-03T05:00:00Z,30.3085,-88.1395,77.69,1111122 
DISL,ioos:station:DISL:CATA:1,2017-10-03T05:30:00Z,30.3085,-88.1395,76.94,1111122 
DISL,ioos:station:DISL:CATA:1,2017-10-03T06:30:00Z,30.3085,-88.1395,77.14,1111122 
DISL,ioos:station:DISL:CATA:1,2017-10-03T07:00:00Z,30.3085,-88.1395,77.48,1111122 
DISL,ioos:station:DISL:CATA:1,2017-10-03T07:30:00Z,30.3085,-88.1395,79.68,1111122 
DISL,ioos:station:DISL:CATA:1,2017-10-03T08:00:00Z,30.3085,-88.1395,81.3,1111122 
DISL,ioos:station:DISL:CATA:1,2017-10-03T08:30:00Z,30.3085,-88.1395,82.6,1111122 
DISL,ioos:station:DISL:CATA:1,2017-10-03T09:00:00Z,30.3085,-88.1395,79.54,1111122 
DISL,ioos:station:DISL:CATA:1,2017-10-03T09:30:00Z,30.3085,-88.1395,73.54,1111122 
DISL,ioos:station:DISL:CATA:1,2017-10-03T10:00:00Z,30.3085,-88.1395,75.39,1111122 
DISL,ioos:station:DISL:CATA:1,2017-10-03T10:30:00Z,30.3085,-88.1395,77.17,1111122 
DISL,ioos:station:DISL:CATA:1,2017-10-03T11:00:00Z,30.3085,-88.1395,79.74,1111122 
DISL,ioos:station:DISL:CATA:1,2017-10-03T11:30:00Z,30.3085,-88.1395,83.3,1111122 
DISL,ioos:station:DISL:CATA:1,2017-10-03T12:00:00Z,30.3085,-88.1395,83.9,1111122 
DISL,ioos:station:DISL:CATA:1,2017-10-03T12:30:00Z,30.3085,-88.1395,83.2,1111122 
DISL,ioos:station:DISL:CATA:1,2017-10-03T13:00:00Z,30.3085,-88.1395,83.2,1111122 
DISL,ioos:station:DISL:CATA:1,2017-10-03T13:30:00Z,30.3085,-88.1395,82.7,1111122 
DISL,ioos:station:DISL:CATA:1,2017-10-03T14:00:00Z,30.3085,-88.1395,82.2,1111122 
DISL,ioos:station:DISL:CATA:1,2017-10-03T14:30:00Z,30.3085,-88.1395,79.53,1111122 
DISL,ioos:station:DISL:CATA:1,2017-10-03T15:00:00Z,30.3085,-88.1395,76.4,1111122 
DISL,ioos:station:DISL:CATA:1,2017-10-03T15:30:00Z,30.3085,-88.1395,73.07,1111122 
DISL,ioos:station:DISL:CATA:1,2017-10-03T16:00:00Z,30.3085,-88.1395,71.81,1111122 
DISL,ioos:station:DISL:CATA:1,2017-10-03T16:30:00Z,30.3085,-88.1395,67.45,1111122 
DISL,ioos:station:DISL:CATA:1,2017-10-03T17:00:00Z,30.3085,-88.1395,67.63,1111122 
DISL,ioos:station:DISL:CATA:1,2017-10-03T17:30:00Z,30.3085,-88.1395,65.36,1111122 
DISL,ioos:station:DISL:CATA:1,2017-10-03T18:00:00Z,30.3085,-88.1395,64.82,1111122 
DISL,ioos:station:DISL:CATA:1,2017-10-03T18:30:00Z,30.3085,-88.1395,62.28,1111122 
DISL,ioos:station:DISL:CATA:1,2017-10-03T19:00:00Z,30.3085,-88.1395,63.72,1111122 
DISL,ioos:station:DISL:CATA:1,2017-10-03T19:30:00Z,30.3085,-88.1395,64.13,1111122 
DISL,ioos:station:DISL:CATA:1,2017-10-03T20:00:00Z,30.3085,-88.1395,61.9,1111122 
DISL,ioos:station:DISL:CATA:1,2017-10-03T20:30:00Z,30.3085,-88.1395,61.49,1111122 
DISL,ioos:station:DISL:CATA:1,2017-10-03T21:00:00Z,30.3085,-88.1395,60.23,1111122 
DISL,ioos:station:DISL:CATA:1,2017-10-03T21:30:00Z,30.3085,-88.1395,64.75,1111122 
DISL,ioos:station:DISL:CATA:1,2017-10-03T22:30:00Z,30.3085,-88.1395,63.17,1111122 
DISL,ioos:station:DISL:CATA:1,2017-10-03T23:30:00Z,30.3085,-88.1395,66.74,1111122 
DISL,ioos:station:DISL:CATA:1,2017-10-04T00:30:00Z,30.3085,-88.1395,69.86,1111122 
DISL,ioos:station:DISL:CATA:1,2017-10-04T01:30:00Z,30.3085,-88.1395,60.37,1111122 
DISL,ioos:station:DISL:CATA:1,2017-10-04T02:30:00Z,30.3085,-88.1395,64.59,1111122 
DISL,ioos:station:DISL:CATA:1,2017-10-04T03:30:00Z,30.3085,-88.1395,63.32,1111122 
DISL,ioos:station:DISL:CATA:1,2017-10-04T04:30:00Z,30.3085,-88.1395,66.82,1111122 
DISL,ioos:station:DISL:CATA:1,2017-10-04T05:30:00Z,30.3085,-88.1395,67.24,1111122 
DISL,ioos:station:DISL:CATA:1,2017-10-04T06:30:00Z,30.3085,-88.1395,68.95,1111122 
DISL,ioos:station:DISL:CATA:1,2017-10-04T07:30:00Z,30.3085,-88.1395,72.48,1111122 
DISL,ioos:station:DISL:CATA:1,2017-10-04T08:30:00Z,30.3085,-88.1395,73.3,1111122 
DISL,ioos:station:DISL:CATA:1,2017-10-04T09:30:00Z,30.3085,-88.1395,75.98,1111122 
DISL,ioos:station:DISL:CATA:1,2017-10-04T11:00:00Z,30.3085,-88.1395,78.38,1111122 
DISL,ioos:station:DISL:CATA:1,2017-10-04T12:30:00Z,30.3085,-88.1395,80.6,1111122 
DISL,ioos:station:DISL:CATA:1,2017-10-04T13:30:00Z,30.3085,-88.1395,81.2,1111122 
DISL,ioos:station:DISL:CATA:1,2017-10-04T14:30:00Z,30.3085,-88.1395,79.47,1111122 
DISL,ioos:station:DISL:CATA:1,2017-10-04T15:30:00Z,30.3085,-88.1395,74.8,1111122 
DISL,ioos:station:DISL:CATA:1,2017-10-04T16:30:00Z,30.3085,-88.1395,73.73,1111122 
DISL,ioos:station:DISL:CATA:1,2017-10-04T17:30:00Z,30.3085,-88.1395,69.89,1111122 
DISL,ioos:station:DISL:CATA:1,2017-10-04T18:30:00Z,30.3085,-88.1395,67.9,1111122 
DISL,ioos:station:DISL:CATA:1,2017-10-04T19:30:00Z,30.3085,-88.1395,64.23,1111122 
DISL,ioos:station:DISL:CATA:1,2017-10-04T20:30:00Z,30.3085,-88.1395,56.49,1111122 
DISL,ioos:station:DISL:CATA:1,2017-10-04T21:30:00Z,30.3085,-88.1395,60.29,1111122 
DISL,ioos:station:DISL:CATA:1,2017-10-04T22:30:00Z,30.3085,-88.1395,57.11,1111122 
DISL,ioos:station:DISL:CATA:1,2017-10-04T23:30:00Z,30.3085,-88.1395,70.06,1111122 
DISL,ioos:station:DISL:CATA:1,2017-10-05T00:30:00Z,30.3085,-88.1395,72.43,1111122 
DISL,ioos:station:DISL:CATA:1,2017-10-05T01:30:00Z,30.3085,-88.1395,74.56,1111122 
DISL,ioos:station:DISL:CATA:1,2017-10-05T02:30:00Z,30.3085,-88.1395,66.2,1111122 
DISL,ioos:station:DISL:CATA:1,2017-10-05T03:30:00Z,30.3085,-88.1395,64.67,1111122 
DISL,ioos:station:DISL:CATA:1,2017-10-05T04:30:00Z,30.3085,-88.1395,65.32,1111122 
DISL,ioos:station:DISL:CATA:1,2017-10-05T05:30:00Z,30.3085,-88.1395,67.65,1111122 
DISL,ioos:station:DISL:CATA:1,2017-10-05T06:30:00Z,30.3085,-88.1395,70.46,1111122 
DISL,ioos:station:DISL:CATA:1,2017-10-05T07:30:00Z,30.3085,-88.1395,70.87,1111122 
DISL,ioos:station:DISL:CATA:1,2017-10-05T08:00:00Z,30.3085,-88.1395,72.24,1111122 
DISL,ioos:station:DISL:CATA:1,2017-10-05T09:30:00Z,30.3085,-88.1395,73.68,1111122 
DISL,ioos:station:DISL:CATA:1,2017-10-05T10:30:00Z,30.3085,-88.1395,74.95,1111122 
DISL,ioos:station:DISL:CATA:1,2017-10-05T11:30:00Z,30.3085,-88.1395,75.26,1111122 
DISL,ioos:station:DISL:CATA:1,2017-10-05T12:30:00Z,30.3085,-88.1395,74.61,1111122 
DISL,ioos:station:DISL:CATA:1,2017-10-05T13:30:00Z,30.3085,-88.1395,75.36,1111122 
DISL,ioos:station:DISL:CATA:1,2017-10-05T14:30:00Z,30.3085,-88.1395,70.56,1111122 
DISL,ioos:station:DISL:CATA:1,2017-10-05T15:30:00Z,30.3085,-88.1395,67.57,1111122 
DISL,ioos:station:DISL:CATA:1,2017-10-05T16:30:00Z,30.3085,-88.1395,68.11,1111122 
DISL,ioos:station:DISL:CATA:1,2017-10-05T17:30:00Z,30.3085,-88.1395,65.36,1111122 
DISL,ioos:station:DISL:CATA:1,2017-10-05T18:30:00Z,30.3085,-88.1395,63.03,1111122 
DISL,ioos:station:DISL:CATA:1,2017-10-05T19:30:00Z,30.3085,-88.1395,57.51,1111122 
DISL,ioos:station:DISL:CATA:1,2017-10-05T20:30:00Z,30.3085,-88.1395,58.36,1111122 
DISL,ioos:station:DISL:CATA:1,2017-10-05T21:30:00Z,30.3085,-88.1395,61.72,1111122 
DISL,ioos:station:DISL:CATA:1,2017-10-05T22:30:00Z,30.3085,-88.1395,65.6,1111122 
DISL,ioos:station:DISL:CATA:1,2017-10-05T23:30:00Z,30.3085,-88.1395,69.24,1111122 
DISL,ioos:station:DISL:CATA:1,2017-10-06T00:30:00Z,30.3085,-88.1395,74.41,1111122 
DISL,ioos:station:DISL:CATA:1,2017-10-06T01:30:00Z,30.3085,-88.1395,69.59,1111122 
DISL,ioos:station:DISL:CATA:1,2017-10-06T02:30:00Z,30.3085,-88.1395,67.98,1111122 
DISL,ioos:station:DISL:CATA:1,2017-10-06T03:30:00Z,30.3085,-88.1395,67.5,1111122 
DISL,ioos:station:DISL:CATA:1,2017-10-06T04:30:00Z,30.3085,-88.1395,70.97,1111122 
DISL,ioos:station:DISL:CATA:1,2017-10-06T05:30:00Z,30.3085,-88.1395,71.07,1111122 
DISL,ioos:station:DISL:CATA:1,2017-10-06T06:30:00Z,30.3085,-88.1395,72.86,1111122 
DISL,ioos:station:DISL:CATA:1,2017-10-06T07:30:00Z,30.3085,-88.1395,73.61,1111122 
DISL,ioos:station:DISL:CATA:1,2017-10-06T08:30:00Z,30.3085,-88.1395,75.43,1111122 
DISL,ioos:station:DISL:CATA:1,2017-10-06T09:30:00Z,30.3085,-88.1395,75.19,1111122 
DISL,ioos:station:DISL:CATA:1,2017-10-06T10:30:00Z,30.3085,-88.1395,75.53,1111122 
DISL,ioos:station:DISL:CATA:1,2017-10-06T11:30:00Z,30.3085,-88.1395,77.38,1111122 
DISL,ioos:station:DISL:CATA:1,2017-10-06T12:30:00Z,30.3085,-88.1395,79.85,1111122 
DISL,ioos:station:DISL:CATA:1,2017-10-06T13:30:00Z,30.3085,-88.1395,80.6,1111122 
DISL,ioos:station:DISL:CATA:1,2017-10-06T14:30:00Z,30.3085,-88.1395,74.8,1111122 
DISL,ioos:station:DISL:CATA:1,2017-10-06T15:30:00Z,30.3085,-88.1395,72.5,1111122 
DISL,ioos:station:DISL:CATA:1,2017-10-06T16:30:00Z,30.3085,-88.1395,70.16,1111122 
DISL,ioos:station:DISL:CATA:1,2017-10-06T17:30:00Z,30.3085,-88.1395,72.73,1111122 
DISL,ioos:station:DISL:CATA:1,2017-10-06T18:30:00Z,30.3085,-88.1395,77.7,1111122 
DISL,ioos:station:DISL:CATA:1,2017-10-06T19:30:00Z,30.3085,-88.1395,74.75,1111122 
DISL,ioos:station:DISL:CATA:1,2017-10-06T20:30:00Z,30.3085,-88.1395,74.82,1111122 
DISL,ioos:station:DISL:CATA:1,2017-10-06T21:30:00Z,30.3085,-88.1395,72.73,1111122 
DISL,ioos:station:DISL:CATA:1,2017-10-06T22:30:00Z,30.3085,-88.1395,74.68,1111122 
DISL,ioos:station:DISL:CATA:1,2017-10-06T23:30:00Z,30.3085,-88.1395,78.93,1111122 
DISL,ioos:station:DISL:CATA:1,2017-10-07T00:30:00Z,30.3085,-88.1395,83.0,1111122 
DISL,ioos:station:DISL:CATA:1,2017-10-07T01:00:00Z,30.3085,-88.1395,83.7,1111122 
DISL,ioos:station:DISL:CATA:1,2017-10-07T02:30:00Z,30.3085,-88.1395,87.1,1111122 
DISL,ioos:station:DISL:CATA:1,2017-10-07T03:30:00Z,30.3085,-88.1395,89.3,1111122 
DISL,ioos:station:DISL:CATA:1,2017-10-07T04:30:00Z,30.3085,-88.1395,90.1,1111122 
DISL,ioos:station:DISL:CATA:1,2017-10-07T05:30:00Z,30.3085,-88.1395,91.1,1111122 
DISL,ioos:station:DISL:CATA:1,2017-10-07T06:30:00Z,30.3085,-88.1395,91.5,1111122 
DISL,ioos:station:DISL:CATA:1,2017-10-07T07:30:00Z,30.3085,-88.1395,92.0,1111122 
DISL,ioos:station:DISL:CATA:1,2017-10-07T08:30:00Z,30.3085,-88.1395,88.4,1111122 
DISL,ioos:station:DISL:CATA:1,2017-10-07T09:30:00Z,30.3085,-88.1395,92.0,1111122 
DISL,ioos:station:DISL:CATA:1,2017-10-07T10:30:00Z,30.3085,-88.1395,92.0,1111122 
DISL,ioos:station:DISL:CATA:1,2017-10-07T11:30:00Z,30.3085,-88.1395,91.4,1111122 
DISL,ioos:station:DISL:CATA:1,2017-10-07T12:30:00Z,30.3085,-88.1395,91.1,1111122 
DISL,ioos:station:DISL:CATA:1,2017-10-07T13:30:00Z,30.3085,-88.1395,91.7,1111122 
DISL,ioos:station:DISL:CATA:1,2017-10-07T14:30:00Z,30.3085,-88.1395,91.7,1111122 
DISL,ioos:station:DISL:CATA:1,2017-10-07T15:30:00Z,30.3085,-88.1395,88.5,1111122 
DISL,ioos:station:DISL:CATA:1,2017-10-07T16:30:00Z,30.3085,-88.1395,85.8,1111122 
DISL,ioos:station:DISL:CATA:1,2017-10-07T17:30:00Z,30.3085,-88.1395,84.3,1111122 
DISL,ioos:station:DISL:CATA:1,2017-10-07T18:30:00Z,30.3085,-88.1395,84.2,1111122 
DISL,ioos:station:DISL:CATA:1,2017-10-07T19:30:00Z,30.3085,-88.1395,85.7,1111122 
DISL,ioos:station:DISL:CATA:1,2017-10-07T20:30:00Z,30.3085,-88.1395,87.5,1111122 
DISL,ioos:station:DISL:CATA:1,2017-10-07T21:00:00Z,30.3085,-88.1395,92.8,1111122 
DISL,ioos:station:DISL:CATA:1,2017-10-09T17:30:00Z,30.3085,-88.1395,83.1,1111122 
DISL,ioos:station:DISL:CATA:1,2017-10-10T15:30:00Z,30.3085,-88.1395,96.0,1111122 
DISL,ioos:station:DISL:CATA:1,2017-10-10T16:30:00Z,30.3085,-88.1395,94.1,1111122 
DISL,ioos:station:DISL:CATA:1,2017-10-10T17:30:00Z,30.3085,-88.1395,88.6,1111122 
DISL,ioos:station:DISL:CATA:1,2017-10-10T18:30:00Z,30.3085,-88.1395,84.0,1111122 
DISL,ioos:station:DISL:CATA:1,2017-10-10T19:30:00Z,30.3085,-88.1395,82.1,1111122 
DISL,ioos:station:DISL:CATA:1,2017-10-10T20:30:00Z,30.3085,-88.1395,81.6,1111122 
DISL,ioos:station:DISL:CATA:1,2017-10-10T21:30:00Z,30.3085,-88.1395,80.1,1111122 
DISL,ioos:station:DISL:CATA:1,2017-10-10T22:30:00Z,30.3085,-88.1395,80.5,1111122 
DISL,ioos:station:DISL:CATA:1,2017-10-10T23:30:00Z,30.3085,-88.1395,85.4,1111122 
DISL,ioos:station:DISL:CATA:1,2017-10-11T00:30:00Z,30.3085,-88.1395,84.8,1111122 
DISL,ioos:station:DISL:CATA:1,2017-10-11T01:30:00Z,30.3085,-88.1395,83.4,1111122 
DISL,ioos:station:DISL:CATA:1,2017-10-11T02:30:00Z,30.3085,-88.1395,86.5,1111122 
DISL,ioos:station:DISL:CATA:1,2017-10-11T03:30:00Z,30.3085,-88.1395,89.5,1111122 
DISL,ioos:station:DISL:CATA:1,2017-10-11T04:30:00Z,30.3085,-88.1395,90.7,1111122 
DISL,ioos:station:DISL:CATA:1,2017-10-11T05:30:00Z,30.3085,-88.1395,90.8,1111122 
DISL,ioos:station:DISL:CATA:1,2017-10-11T06:30:00Z,30.3085,-88.1395,89.8,1111122 
DISL,ioos:station:DISL:CATA:1,2017-10-11T07:30:00Z,30.3085,-88.1395,87.7,1111122 
DISL,ioos:station:DISL:CATA:1,2017-10-11T08:30:00Z,30.3085,-88.1395,88.6,1111122 
DISL,ioos:station:DISL:CATA:1,2017-10-11T09:30:00Z,30.3085,-88.1395,91.8,1111122 
DISL,ioos:station:DISL:CATA:1,2017-10-11T10:30:00Z,30.3085,-88.1395,95.0,1111122 
DISL,ioos:station:DISL:CATA:1,2017-10-11T11:30:00Z,30.3085,-88.1395,95.5,1111122 
DISL,ioos:station:DISL:CATA:1,2017-10-11T12:30:00Z,30.3085,-88.1395,94.8,1111122 
DISL,ioos:station:DISL:CATA:1,2017-10-11T13:30:00Z,30.3085,-88.1395,90.3,1111122 
DISL,ioos:station:DISL:CATA:1,2017-10-11T14:30:00Z,30.3085,-88.1395,83.0,1111122 
DISL,ioos:station:DISL:CATA:1,2017-10-11T15:30:00Z,30.3085,-88.1395,80.3,1111122 
DISL,ioos:station:DISL:CATA:1,2017-10-11T16:30:00Z,30.3085,-88.1395,81.6,1111122 
DISL,ioos:station:DISL:CATA:1,2017-10-11T17:30:00Z,30.3085,-88.1395,78.53,1111122 
DISL,ioos:station:DISL:CATA:1,2017-10-11T18:30:00Z,30.3085,-88.1395,74.11,1111122 
DISL,ioos:station:DISL:CATA:1,2017-10-11T19:30:00Z,30.3085,-88.1395,77.23,1111122 
DISL,ioos:station:DISL:CATA:1,2017-10-11T20:30:00Z,30.3085,-88.1395,77.12,1111122 
DISL,ioos:station:DISL:CATA:1,2017-10-11T21:30:00Z,30.3085,-88.1395,73.15,1111122 
DISL,ioos:station:DISL:CATA:1,2017-10-11T22:30:00Z,30.3085,-88.1395,75.29,1111122 
DISL,ioos:station:DISL:CATA:1,2017-10-11T23:30:00Z,30.3085,-88.1395,77.42,1111122 
DISL,ioos:station:DISL:CATA:1,2017-10-12T00:30:00Z,30.3085,-88.1395,77.46,1111122 
DISL,ioos:station:DISL:CATA:1,2017-10-12T01:30:00Z,30.3085,-88.1395,87.2,1111122 
DISL,ioos:station:DISL:CATA:1,2017-10-12T02:30:00Z,30.3085,-88.1395,87.0,1111122 
DISL,ioos:station:DISL:CATA:1,2017-10-12T03:30:00Z,30.3085,-88.1395,86.8,1111122 
DISL,ioos:station:DISL:CATA:1,2017-10-12T04:30:00Z,30.3085,-88.1395,88.6,1111122 
DISL,ioos:station:DISL:CATA:1,2017-10-12T05:30:00Z,30.3085,-88.1395,91.2,1111122 
DISL,ioos:station:DISL:CATA:1,2017-10-12T06:30:00Z,30.3085,-88.1395,88.0,1111122 
DISL,ioos:station:DISL:CATA:1,2017-10-12T07:30:00Z,30.3085,-88.1395,91.3,1111122 
DISL,ioos:station:DISL:CATA:1,2017-10-12T08:30:00Z,30.3085,-88.1395,91.7,1111122 
DISL,ioos:station:DISL:CATA:1,2017-10-12T09:30:00Z,30.3085,-88.1395,90.7,1111122 
DISL,ioos:station:DISL:CATA:1,2017-10-12T10:30:00Z,30.3085,-88.1395,91.2,1111122 
DISL,ioos:station:DISL:CATA:1,2017-10-12T11:30:00Z,30.3085,-88.1395,90.6,1111122 
DISL,ioos:station:DISL:CATA:1,2017-10-12T12:30:00Z,30.3085,-88.1395,84.0,1111122 
DISL,ioos:station:DISL:CATA:1,2017-10-12T13:30:00Z,30.3085,-88.1395,83.6,1111122 
DISL,ioos:station:DISL:CATA:1,2017-10-12T14:30:00Z,30.3085,-88.1395,76.61,1111122 
DISL,ioos:station:DISL:CATA:1,2017-10-12T15:30:00Z,30.3085,-88.1395,73.25,1111122 
DISL,ioos:station:DISL:CATA:1,2017-10-12T16:30:00Z,30.3085,-88.1395,70.5,1111122 
DISL,ioos:station:DISL:CATA:1,2017-10-12T19:30:00Z,30.3085,-88.1395,67.06,1111122 
DISL,ioos:station:DISL:CATA:1,2017-10-12T20:30:00Z,30.3085,-88.1395,63.94,1111122 
DISL,ioos:station:DISL:CATA:1,2017-10-12T21:30:00Z,30.3085,-88.1395,62.71,1111122 
DISL,ioos:station:DISL:CATA:1,2017-10-12T22:30:00Z,30.3085,-88.1395,62.33,1111122 
DISL,ioos:station:DISL:CATA:1,2017-10-12T23:30:00Z,30.3085,-88.1395,66.73,1111122 
DISL,ioos:station:DISL:CATA:1,2017-10-13T00:30:00Z,30.3085,-88.1395,71.84,1111122 
DISL,ioos:station:DISL:CATA:1,2017-10-13T01:30:00Z,30.3085,-88.1395,72.83,1111122 